This demonstration page uses our WeatherBlox Daily Observations layout. Learn more.

Left ArrowRight Arrow

Hourly Observations for August 19, 2020

Temp ( °F °C ) Dew Point ( °F °C ) Humidity (%) Winds ( mph kmh ) Pressure ( in mb ) Visibility ( mi km ) Precip ( " mm )
12:15 am 00:15 Clear 59 15 59 15 100 100 N 3 6 30.03 1017 10 16.0934 N/A
12:35 am 00:35 Clear 57 14 57 14 100 100 Calm 30.04 1017 10 16.0934 N/A
12:55 am 00:55 Clear 57 14 57 14 100 100 Calm 30.04 1017 10 16.0934 N/A
1:15 am 01:15 Clear 55 13 55 13 100 100 Calm 30.04 1017 10 16.0934 N/A
1:35 am 01:35 Clear 55 13 55 13 100 100 Calm 30.05 1018 10 16.0934 N/A
1:55 am 01:55 Clear 55 13 55 13 100 100 Calm 30.05 1018 10 16.0934 N/A
2:15 am 02:15 Clear 55 13 55 13 100 100 N 6 9 30.05 1018 10 16.0934 N/A
2:35 am 02:35 Clear 55 13 55 13 100 100 N 5 7 30.04 1017 10 16.0934 N/A
2:55 am 02:55 Clear 55 13 55 13 100 100 N 5 7 30.04 1017 10 16.0934 N/A
3:15 am 03:15 Clear 55 13 55 13 100 100 N 5 7 30.04 1017 10 16.0934 N/A
3:35 am 03:35 Clear 54 12 54 12 100 100 NNE 3 6 30.04 1017 10 16.0934 N/A
3:55 am 03:55 Clear 54 12 54 12 100 100 Calm 30.04 1017 10 16.0934 N/A
4:15 am 04:15 Clear 54 12 54 12 100 100 Calm 30.04 1017 10 16.0934 N/A
4:35 am 04:35 Clear 54 12 54 12 100 100 N 3 6 30.04 1017 10 16.0934 N/A
4:55 am 04:55 Clear 54 12 54 12 100 100 N 3 6 30.04 1017 10 16.0934 N/A
5:15 am 05:15 Clear 54 12 54 12 100 100 N 3 6 30.04 1017 10 16.0934 N/A
5:35 am 05:35 Clear 52 11 52 11 100 100 Calm 30.05 1018 10 16.0934 N/A
5:55 am 05:55 Clear 54 12 54 12 100 100 N 3 6 30.04 1017 10 16.0934 N/A
6:15 am 06:15 Clear 52 11 52 11 100 100 Calm 30.05 1018 10 16.0934 N/A
6:35 am 06:35 Clear 52 11 52 11 100 100 N 5 7 30.06 1018 10 16.0934 N/A
6:55 am 06:55 Clear 50 10 50 10 100 100 N 3 6 30.07 1018 10 16.0934 N/A
7:15 am 07:15 Sunny 50 10 50 10 100 100 Calm 30.07 1018 10 16.0934 N/A
7:35 am 07:35 Sunny 52 11 52 11 100 100 N 3 6 30.08 1019 10 16.0934 N/A
7:55 am 07:55 Sunny 54 12 54 12 100 100 N 3 6 30.07 1018 10 16.0934 N/A
8:15 am 08:15 Sunny 55 13 55 13 100 100 Calm 30.08 1019 10 16.0934 N/A
8:35 am 08:35 Sunny 59 15 59 15 100 100 Calm 30.07 1018 10 16.0934 N/A
8:55 am 08:55 Sunny 61 16 61 16 100 100 NNE 3 6 30.07 1018 10 16.0934 N/A
9:15 am 09:15 Sunny 63 17 63 17 100 100 Calm 30.08 1019 10 16.0934 N/A
9:35 am 09:35 Sunny 64 18 63 17 94 94 NNE 3 6 30.07 1018 10 16.0934 N/A
9:55 am 09:55 Sunny 66 19 63 17 88 88 NNE 6 9 30.07 1018 10 16.0934 N/A
10:15 am 10:15 Sunny 68 20 63 17 83 83 NE 6 9 30.07 1018 10 16.0934 N/A
10:35 am 10:35 Sunny 70 21 63 17 78 78 NE 6 9 30.07 1018 10 16.0934 N/A
10:55 am 10:55 Sunny 72 22 61 16 69 69 ENE 6 9 30.07 1018 10 16.0934 N/A
11:15 am 11:15 Sunny 72 22 59 15 65 65 NE 7 11 30.07 1018 10 16.0934 N/A
11:35 am 11:35 Sunny 72 22 59 15 65 65 NE 7 11 30.07 1018 10 16.0934 N/A
11:55 am 11:55 Sunny 73 23 59 15 61 61 NE 7 11 30.07 1018 10 16.0934 N/A
12:15 pm 12:15 Sunny 73 23 59 15 61 61 NE 7 11 30.07 1018 10 16.0934 N/A
12:35 pm 12:35 Sunny 73 23 61 16 65 65 ENE 7 11 30.06 1018 10 16.0934 N/A
12:55 pm 12:55 Sunny 73 23 59 15 61 61 ENE 8 13 30.06 1018 10 16.0934 N/A
1:15 pm 13:15 Sunny 75 24 61 16 61 61 NE 7 11 30.06 1018 10 16.0934 N/A
1:35 pm 13:35 Sunny 75 24 61 16 61 61 NE 6 9 30.06 1018 10 16.0934 N/A
1:55 pm 13:55 Sunny 75 24 59 15 57 57 NE 7 11 30.05 1017 10 16.0934 N/A
2:15 pm 14:15 Sunny 77 25 59 15 54 54 NE 8 13 30.04 1017 10 16.0934 N/A
2:35 pm 14:35 Sunny 75 24 61 16 61 61 NE 7 11 30.05 1017 10 16.0934 N/A
2:55 pm 14:55 Sunny 75 24 59 15 57 57 N 3 6 30.05 1017 10 16.0934 N/A
3:15 pm 15:15 Sunny 75 24 63 17 65 65 ENE 8 13 30.04 1017 10 16.0934 N/A
3:35 pm 15:35 Sunny 77 25 63 17 61 61 ENE 6 9 30.02 1017 10 16.0934 N/A
3:55 pm 15:55 Sunny 75 24 63 17 65 65 ENE 5 7 30.03 1017 10 16.0934 N/A
4:15 pm 16:15 Partly Cloudy 77 25 61 16 57 57 N 5 7 30.01 1016 10 16.0934 N/A
4:35 pm 16:35 Sunny 77 25 61 16 57 57 ENE 8 13 30.01 1016 10 16.0934 N/A
4:55 pm 16:55 Sunny 77 25 63 17 61 61 NE 6 9 30.01 1016 10 16.0934 N/A
5:15 pm 17:15 Sunny 77 25 63 17 61 61 NE 8 13 30 1016 10 16.0934 N/A
5:35 pm 17:35 Sunny 75 24 63 17 65 65 NE 8 13 30.02 1016 10 16.0934 N/A
5:55 pm 17:55 Sunny 77 25 61 16 57 57 N 5 7 30 1016 10 16.0934 N/A
6:15 pm 18:15 Sunny 73 23 63 17 69 69 NE 6 9 30.01 1016 10 16.0934 N/A
6:35 pm 18:35 Sunny 75 24 63 17 65 65 E 6 9 30.01 1016 10 16.0934 N/A
6:55 pm 18:55 Sunny 75 24 63 17 65 65 Calm 30.01 1016 10 16.0934 N/A
7:15 pm 19:15 Sunny 73 23 64 18 74 74 NE 3 6 30.01 1016 10 16.0934 N/A
7:35 pm 19:35 Sunny 72 22 66 19 83 83 NE 5 7 30 1016 10 16.0934 N/A
7:55 pm 19:55 Sunny 70 21 66 19 88 88 NE 5 7 30.02 1016 10 16.0934 N/A
8:15 pm 20:15 Sunny 72 22 64 18 78 78 NE 5 7 30.01 1016 10 16.0934 N/A
8:35 pm 20:35 Clear 68 20 64 18 88 88 NE 3 6 30.02 1017 10 16.0934 N/A
8:55 pm 20:55 Clear 64 18 64 18 100 100 Calm 30.03 1017 10 16.0934 N/A
9:15 pm 21:15 Clear 64 18 64 18 100 100 Calm 30.03 1017 10 16.0934 N/A
9:35 pm 21:35 Clear 63 17 63 17 100 100 Calm 30.05 1018 10 16.0934 N/A
9:55 pm 21:55 Clear 61 16 61 16 100 100 Calm 30.05 1018 10 16.0934 N/A
10:15 pm 22:15 Clear 61 16 61 16 100 100 Calm 30.05 1018 10 16.0934 N/A
10:35 pm 22:35 Clear 61 16 61 16 100 100 Calm 30.06 1018 10 16.0934 N/A
10:55 pm 22:55 Clear 59 15 59 15 100 100 Calm 30.05 1018 10 16.0934 N/A
11:15 pm 23:15 Clear 59 15 59 15 100 100 Calm 30.06 1018 10 16.0934 N/A
11:35 pm 23:35 Clear 59 15 59 15 100 100 Calm 30.06 1018 10 16.0934 N/A
11:55 pm 23:55 Clear 57 14 57 14 100 100 Calm 30.07 1018 10 16.0934 N/A

Powered by AerisWeather